Location: Escuer
(42.5948°N, 0.3284°W)
Time: 07:30:34
(UTC+00:00)

Daily predictions for brighter satellites

Satellite Brightness Start Highest point End
(mag) Time Altitude Azimuth Time Altitude Azimuth Time Altitude Azimuth
Meteor 2-10 Rocket 3.6 20:07:48 10° N 20:12:45 56° ENE 20:17:39 10° SSE
Cosmos 2369 Rocket 3.2 20:07:27 10° NW 20:12:47 46° WSW 20:18:08 10° S
Cosmos 1656 Rocket 4.3 20:07:37 10° NNW 20:12:57 56° WSW 20:18:21 10° S
Cosmos 1975 Rocket 3.8 20:10:35 10° SSE 20:14:36 34° E 20:18:38 10° NNE
H-2A R/B 2.2 20:10:48 10° NNE 20:15:11 64° ESE 20:19:37 10° S
Cosmos 2084 3.8 20:15:26 10° S 20:18:57 34° ESE 20:22:27 10° NE
Resurs 1-3 4.3 20:20:42 10° S 20:24:58 55° W 20:29:18 10° NNW
USA 276 2.1 20:23:56 10° SW 20:26:50 48° SE 20:29:44 10° ENE
GENESIS II 4.3 20:23:28 10° NW 20:27:32 82° WSW 20:31:35 10° SSE
ARGOS Delta rocket 4.4 20:23:57 10° N 20:28:35 59° WNW 20:33:00 10° SSW
ATLAS 2AS CENTAUR R/B 3.5 20:24:38 10° NNW 20:31:23 42° NE 20:37:41 10° ESE
Meteor 1-24 Rocket 4.0 20:27:03 10° SSE 20:32:00 43° E 20:37:04 10° NNE
MetOp-B 4.4 20:27:55 10° SSE 20:33:06 54° ENE 20:38:20 10° N
Cosmos 1371 Rocket 4.1 20:28:59 10° S 20:34:05 58° ESE 20:39:17 10° NNE
Lacrosse 5 3.1 20:30:50 10° NW 20:35:30 34° NNE 20:40:09 10° E
Cosmos 1745 Rocket 4.1 20:30:33 10° N 20:36:42 85° W 20:42:53 10° S
X-37B 0.2 20:34:09 10° WSW 20:36:56 72° SSE 20:39:45 10° ENE
NOSS 3-4 (A) 4.3 20:30:20 10° NW 20:37:23 66° WSW 20:45:19 10° SSE
NOSS 3-4 (C) 4.2 20:30:25 10° NW 20:37:29 67° WSW 20:45:24 10° SSE
Cosmos 1833 Rocket 4.5 20:36:17 10° ESE 20:38:16 12° E 20:40:16 10° ENE
Terra 3.4 20:38:11 10° ESE 20:41:40 21° ENE 20:45:10 10° NNE
DELTA 2 R/B (1) 4.5 20:37:06 10° W 20:42:08 35° SSW 20:46:38 12° SE
IRS-1A Rocket 4.5 20:36:21 10° SSE 20:42:16 85° WSW 20:48:13 10° NNW
Resurs 01 Rocket 2.0 20:43:32 10° S 20:47:57 65° W 20:52:23 10° NNW
Cosmos 1300 3.8 20:46:52 10° NNW 20:50:28 42° W 20:54:02 10° SSW
Helios 1A Rocket 3.9 20:51:31 15° SE 20:54:20 32° ENE 20:57:59 10° N
Cosmos 1624 Rocket 4.0 20:49:08 10° SSW 20:54:22 82° ESE 20:59:37 10° NNE
CZ-4B R/B 1.9 20:54:32 10° N 20:57:21 50° WNW 21:00:08 10° SSW
Cosmos 1190 Rocket 4.0 20:53:08 10° NNW 20:58:29 88° ENE 21:03:04 14° SSE
Lacrosse 5 rocket 1.5 20:55:06 10° NW 20:58:55 62° NE 21:01:56 17° ESE
Cosmos 407 Rocket 4.0 20:56:21 10° NNW 21:01:26 57° WSW 21:06:26 10° S
Cosmos 1271 Rocket 3.3 20:58:06 10° N 21:01:55 43° ENE 21:04:25 19° SE
SPOT 3 Rocket 3.6 20:59:34 14° SSE 21:04:07 77° ENE 21:09:20 10° N
ERS-1 Rocket 3.5 21:03:40 17° SE 21:07:17 46° ENE 21:12:05 10° N
USA 102 4.3 21:04:50 24° ESE 21:07:32 57° NE 21:15:19 10° NNW
RESURS DK-1 4.5 21:07:43 10° N 21:10:28 17° NE 21:13:07 10° E
Cosmos 2056 Rocket 4.0 21:09:46 10° SSW 21:15:06 67° WNW 21:20:32 10° NNE
Cosmos 1025 Rocket 3.5 21:11:22 10° SSW 21:15:34 59° W 21:19:50 10° N
Cosmos 2315 Rocket 4.3 21:11:41 10° SSW 21:18:00 71° W 21:24:19 10° N
CZ-2C R/B 4.0 21:14:06 10° NNE 21:18:31 46° E 21:21:17 20° SSE
ARIANE 5 R/B 3.6 21:18:10 20° ESE 21:20:33 33° ENE 21:24:34 10° N
Cosmos 1455 Rocket 3.8 21:16:28 10° NNW 21:20:40 48° W 21:24:39 11° SSW
Cosmos 1420 Rocket 4.3 21:17:46 10° SSW 21:22:58 71° WNW 21:28:16 10° NNE
Cosmos 676 Rocket 4.0 21:20:38 10° NNW 21:25:59 88° WSW 21:29:29 22° SSE
USA 245 4.1 21:28:11 16° S 21:31:58 57° WSW 21:35:54 10° NNW
Cosmos 1455 2.3 21:29:23 10° NNW 21:33:11 75° W 21:35:18 25° S
Cosmos 2074 Rocket 4.1 21:30:01 10° N 21:36:16 65° E 21:40:08 24° SSE
USA 32 4.4 21:32:30 10° SSW 21:37:40 62° W 21:42:51 10° N
Ariane Rocket 4.4 21:33:38 10° SSW 21:38:11 33° W 21:42:47 10° NNW
COSMOS 2406 4.4 21:37:53 22° ESE 21:39:12 24° E 21:43:43 10° NE
TSX-5 4.1 21:38:22 14° SSW 21:41:54 77° ESE 21:47:20 10° NNE
Cosmos 1954 Rocket 4.5 21:39:13 10° NNW 21:44:22 55° WSW 21:47:39 22° S
Cosmos 1536 Rocket 3.5 21:43:14 22° S 21:45:57 87° W 21:50:18 10° N
USA 267 3.2 21:40:21 10° NE 21:46:54 71° SE 21:53:25 10° SW
NOSS 2-1 (C) 4.1 21:43:06 10° NW 21:47:51 86° WSW 21:51:27 27° SSE
SPOT 5 3.0 21:46:23 24° S 21:48:57 60° WSW 21:53:16 10° NNW
Nadezhda 1 Rocket 4.1 21:47:09 26° SSE 21:50:33 57° E 21:56:28 10° NNE
Tiangong 1.3 21:47:33 10° W 21:50:37 49° SSW 21:50:37 49° SSW
Cosmos 2228 3.2 21:46:33 10° N 21:50:43 53° E 21:52:05 36° SE
Cosmos 1703 3.1 21:51:22 35° S 21:52:56 85° E 21:56:48 10° N
Cosmos 1980 Rocket 3.9 21:48:34 10° N 21:52:59 22° NE 21:56:37 13° E
Cosmos 1850 Rocket 4.1 21:47:51 10° NNW 21:53:01 62° ENE 21:55:21 32° SE
Cosmos 1606 Rocket 4.2 21:51:41 10° N 21:55:45 39° ENE 21:56:56 32° ESE
Cosmos 1697 Rocket 3.5 21:50:36 10° NNW 21:55:55 41° ENE 21:58:44 24° ESE
NOSS 2-1 (D) 4.3 21:53:24 10° NW 21:58:14 73° SW 22:01:33 30° SSE
ASTRO F (AKARI) 4.4 21:58:49 52° SSE 21:59:35 81° ENE 22:03:08 10° N
Cosmos 2154 Rocket 4.0 21:54:52 10° N 22:01:06 71° E 22:04:14 31° SSE
USA 276 4.0 21:59:55 10° W 22:02:37 30° NNW 22:05:20 10° NE
Cosmos 1328 4.1 22:04:04 43° ESE 22:04:40 47° E 22:08:32 10° NNE
Cosmos 1656 3.6 21:59:58 10° NNW 22:05:28 83° WSW 22:07:55 34° SSE
Cosmos 1295 Rocket 4.5 22:00:08 10° N 22:06:24 73° E 22:09:23 32° SSE
Cosmos 1331 Rocket 4.0 22:04:06 31° S 22:06:37 65° ESE 22:11:53 10° NNE
Spot 2 Rocket 4.4 22:05:55 20° SSW 22:09:00 41° W 22:13:50 10° NNW
X-37B 1.2 22:09:46 10° W 22:12:31 48° N 22:12:57 43° NNE
Meteor 1-21 Rocket 4.1 22:10:01 29° S 22:12:58 85° E 22:18:39 10° N
Cosmos 1408 4.0 22:15:25 24° ENE 22:15:25 24° ENE 22:17:43 10° NNE
Cosmos 1452 Rocket 4.0 22:11:55 12° SW 22:16:41 59° WNW 22:21:54 10° NNE
Lacrosse 5 2.2 22:13:43 10° NW 22:18:41 54° SW 22:20:08 40° S
Terra 2.6 22:16:55 27° SSW 22:19:05 45° W 22:23:40 10° NNW
USA 234 3.9 22:14:24 14° ESE 22:19:58 52° NNE 22:26:17 10° NW
Cosmos 1726 Rocket 3.7 22:16:19 10° N 22:20:35 56° E 22:21:23 47° ESE
SAR-Lupe-4 3.4 22:17:12 10° NNE 22:20:47 75° ESE 22:21:00 71° SE
Cosmos 1833 Rocket 2.6 22:17:42 23° SSW 22:21:18 90° ESE 22:26:57 10° NNE
ATLAS 2AS CENTAUR R/B 3.2 22:15:46 10° NW 22:22:22 46° WSW 22:25:25 28° S
Cosmos 1110 Rocket 4.1 22:25:42 25° SSW 22:28:49 74° WNW 22:34:08 10° NNE
SL-8 Rocket 4.5 22:25:31 10° N 22:31:31 47° ENE 22:33:46 33° SE
Cosmos 1302 Rocket 4.1 22:31:56 46° SE 22:32:58 53° ESE 22:38:01 10° NNE
ALOS 2 4.2 22:32:45 21° E 22:33:48 23° ENE 22:37:14 10° NNE
Cosmos 2360 4.2 22:28:23 10° NNW 22:34:09 79° ENE 22:36:09 42° SE
SAR-Lupe-1 4.5 22:33:22 10° N 22:36:54 58° WNW 22:37:28 50° WSW
Lacrosse 5 rocket 3.3 22:35:01 10° W 22:37:26 17° WSW 22:37:26 17° WSW
Cosmos 967 Rocket 4.5 22:34:40 20° SSW 22:39:24 90° NW 22:45:55 10° NNE
Cosmos 2218 Rocket 4.5 22:37:25 10° N 22:43:38 50° ENE 22:45:53 35° SE
Cosmos 2082 Rocket 2.3 22:42:49 46° SSE 22:44:11 58° ESE 22:49:46 10° NNE
Cosmos 2366 rocket 4.4 22:41:14 10° N 22:47:24 52° ENE 22:49:34 37° SE
Meteor 2-1 Rocket 4.4 22:43:10 10° NNW 22:48:35 60° W 22:50:29 39° SSW
RESURS DK-1 2.7 22:44:43 10° NW 22:48:44 50° WSW 22:48:58 49° WSW
H-2A R/B 4.4 22:47:39 10° NNE 22:51:09 34° E 22:51:09 34° E
Cosmos 2341 Rocket 4.0 22:45:35 10° N 22:51:57 81° E 22:54:07 44° SSE
Spot 4 4.0 22:52:43 50° ESE 22:53:37 60° ENE 22:58:20 10° N
Cosmos 1892 Rocket 3.7 22:53:33 54° SW 22:54:24 69° W 22:58:48 10° N
Cosmos 2058 Rocket 2.9 22:50:12 10° N 22:54:37 77° E 22:55:04 68° SE
ARIANE 5 R/B 4.3 22:55:42 21° WSW 22:57:02 24° W 23:00:38 10° NW
Cosmos 1825 3.1 22:58:50 38° ENE 22:58:50 38° ENE 23:01:45 10° NNE
Cosmos 192 4.4 23:00:40 46° SW 23:02:03 73° WNW 23:06:58 10° NNE
Cosmos 968 Rocket 3.4 23:01:07 10° NNW 23:06:20 83° ENE 23:07:22 58° SSE
ERS-2 4.1 23:04:11 10° NE 23:05:53 19° ENE 23:05:53 19° ENE
Cosmos 1626 Rocket 3.7 23:10:22 56° E 23:10:22 56° E 23:14:33 10° NNE
SL-8 R/B 3.7 23:05:28 10° WNW 23:10:18 82° NNE 23:11:22 54° ESE
GP-B 3.5 23:06:15 10° N 23:10:35 53° W 23:11:19 47° WSW
Cosmos 1959 Rocket 4.4 23:05:49 10° N 23:11:57 77° E 23:13:40 49° SSE
Cosmos 1869 3.5 23:13:37 10° N 23:17:08 59° NE 23:17:08 59° NE
Meteor 1-27 4.1 23:13:52 10° N 23:19:27 79° E 23:20:39 56° SSE
ASTEX 1 4.5 23:15:52 10° N 23:20:29 38° WNW 23:22:15 29° WSW
Cosmos 864 Rocket 4.4 23:15:42 10° N 23:21:54 88° W 23:23:39 51° S
Cosmos 2181 Rocket 3.9 23:20:12 46° SSW 23:22:10 80° W 23:28:23 10° N
COSMOS 2406 3.9 23:19:53 24° SW 23:23:08 51° WNW 23:28:45 10° NNE
ADEOS Rocket 3.5 23:20:29 41° SSE 23:23:15 74° ENE 23:30:51 10° N
Cosmos 1633 3.9 23:25:15 31° NE 23:25:15 31° NE 23:27:30 10° NNE
Okean 1-7 Rocket 3.5 23:27:29 75° WSW 23:27:43 78° W 23:32:12 10° N
Cosmos 2369 3.8 23:23:19 10° NNW 23:29:00 65° WSW 23:30:04 54° SSW
USA 267 4.4 23:23:34 10° NE 23:29:40 43° NNW 23:35:45 10° W
SL-16 R/B 3.5 23:25:16 10° N 23:30:22 33° NE 23:33:07 22° ESE
Cosmos 1892 3.8 23:30:48 36° WNW 23:30:48 36° WNW 23:34:18 10° N
Cosmos 1980 Rocket 2.2 23:31:49 10° NNW 23:37:27 63° WSW 23:38:21 55° SSW
SJ 16-02 3.1 23:34:25 10° N 23:38:01 24° ENE 23:39:13 21° E
Cosmos 1486 Rocket 4.0 23:33:27 10° NNW 23:38:40 71° ENE 23:39:34 58° SE
Cosmos 1697 Rocket 3.8 23:34:53 10° NW 23:39:40 29° WSW 23:40:27 28° WSW
Cosmos 2084 Rocket 3.7 23:35:57 10° NW 23:39:10 55° WNW 23:39:10 55° WNW
Cosmos 1821 Rocket 4.0 23:38:00 10° N 23:44:15 70° E 23:45:54 49° SE
Cosmos 1992 Rocket 4.0 23:48:17 56° SW 23:49:18 73° WNW 23:54:34 10° NNE
